Location: Milevsko
(49.4500°N, 14.3670°E)
Time: 01:39:16
(UTC+01:00)

ISS - Pass Details

Date: 18 July 2018
Orbit: 401 x 408 km, 51.6° (Epoch: 20 November)

Event Time Altitude Azimuth Distance (km) Brightness Sun altitude
Exits shadow 02:32:55 - 279° (W) 2,277 -0.1 -17.0°
Reaches altitude 10° 02:34:52 10° 284° (WNW) 1,489 -1.0 -16.9°
Drops below altitude 10° 02:41:29 10° 85° (E) 1,495 -0.6 -16.5°
Enters shadow 03:51:13 -42° 288° (WNW) 9,159 2.9 -10.8°
Maximum altitude 04:14:52 67° 204° (SSW) 455 -3.8 -8.3°
